Showing default

COSMOS 2093, 20738

Orbit data source: Space-Track

COSMOS 2093, 20738 is a payload satellite owned by UNKS (CIS) in LEO that was launched on Wed, 08 Aug 1990 UTC via a TSIKLON-3 launch vehicle from the Plesetsk Missile And Space Complex (PKMTR). Payload-class satellites include a variety of spacecraft equipped with specific instruments for various scientific and technological missions. These include communications satellites like Starlink; space stations such as the ISS; scientific satellites like the Hubble; Earth observation satellites from companies like Planet Labs, Umbra, and HawkEye 360; GPS; miniature CubeSats for education and research; and military/defense satellites.

Loading next visibility...
Identifier
20738, 1990-070D
Orbit
LEO
Last TLE update
15 hours ago
Origin
Manufacturer
NPO PM
Mission
Defense Communications
Bus & Motor
STRELA-3, Unknown motor
Mass
225 kg wet, 225 kg dry
Launch date (UTC)
1990-08-08 (35 years ago)
Launch vehicle
TSIKLON-3
Launch site
Plesetsk Missile And Space Complex (PKMTR)
Object type
Payload
Rocket body
Debris
Shape & HBR
Cyl, 1.6 m
Radar Cross Section
1.257 m², Large (>1 m²)

Expand to show TLE details & history

TLE from 15 hours ago
0 COSMOS 2093
1 20738U 90070D   25191.40982709  .00000005  00000-0 -29076-4 0  9997
2 20738  82.5754 159.8123 0009055 155.8962 321.6884 12.64083349611197
Epoch: 2025-07-10T09:50Z
TLE epoch observation values (Epoch: 2025-07-10T09:50:09.06Z)
Latitude
61.65788°
Longitude
-110.2121°
Altitude
1,411.119 km
Speed
7.163 km/s
True Right ascension
21h 43m 36s
True Declination
61° 31' 34"
Sunlit
Object was in daylight at epoch
Visualization orbit readout
Latitude
10.16857°
Longitude
84.64043°
Altitude
1,413.845 km
Speed
7.152 km/s
Apparent Right ascension
08h 20m 15s
Apparent Declination
-32° 32' 04"
Sunlit
Object is in daylight
Visualization observer readout
Local Sidereal Time
12:44:13
Azimuth
230.602° WSW
Elevation
-4.706°
Doppler factor
1
Orbital elements
Apogee altitude
1,410.5 km
Perigee altitude
1,396.408 km
Semi-major axis
7,781.591 km
Eccentricity
0.00091
Inclination
82.5754°
RAAN
159.8123°
Arg. of periapsis
155.8962°
True anomaly
Unknown
Mean anomaly
321.6884°
Eccentric anomaly
Unknown
Mean motion
3.16185 °/min
Orbital period
113.86 mins
BSTAR
-0.000029076
Loading maneuver chart data...
Loading SW <> Apogee altitude chart data...
Loading historical data...
Loading historical data...
Loading historical data...
Loading historical data...
Loading historical data...
Loading historical data...
Loading historical data...

COSMOS 2093 Visibility forecast

Observer location: undefined°, undefined°

Span
Click to sort rows by Start time (UTC) header in descending order
Start Az.
Max El. time (UTC)
Max El. Az.
Max El.
End time (UTC)
End Az.
9 mins2025-07-11 00:34:59.662Z260.328° W2025-07-11 00:38:59.662Z291.941° WNW17.727°2025-07-11 00:43:59.662Z332.31° NNW
13 mins2025-07-11 08:37:59.662Z14.931° NNE2025-07-11 08:43:59.662Z72.857° E29.51°2025-07-11 08:50:59.662Z133.867° SE
13 mins2025-07-11 10:32:59.662Z336.137° NNW2025-07-11 10:38:59.662Z269.737° W36.753°2025-07-11 10:45:59.662Z202.078° SSW
12 mins2025-07-11 21:25:59.662Z136.204° SSE2025-07-11 21:30:59.662Z87.422° E29.07°2025-07-11 21:37:59.662Z26.418° NE
14 mins2025-07-11 23:18:59.662Z214.021° SW2025-07-11 23:25:59.662Z290.533° WNW36.96°2025-07-11 23:32:59.662Z355.704° N
|